GW6554 Weather Reports


Display with metric or nautical units.
time (UTC)temp
F
wind
direction
speed
MPH
gust
MPH
rain 1hr
in
rain 24hr
in
rain mn
in
humidity
%
barometer
mb
20260509043206 71 132 1.0 2.0 0.00 0.42 0.42 83 1005.9
20260509042703 71 193 3.0 5.0 0.00 0.42 0.42 82 1005.6
20260509042159 71 229 2.0 3.0 0.00 0.42 0.42 82 1006.0
20260509041656 71 128 0.0 0.0 0.00 0.42 0.42 82 1005.9
20260509041153 71 86 0.0 1.0 0.00 0.42 0.42 82 1005.9
20260509040652 72 163 2.0 2.0 0.00 0.42 0.42 82 1005.9
20260509040148 72 105 1.0 1.0 0.00 0.42 0.42 82 1005.5
20260509035645 72 119 1.0 1.0 0.00 0.42 0.42 81 1006.1
20260509035141 72 67 1.0 1.0 0.00 0.42 0.42 81 1005.9
20260509034639 72 75 0.0 0.0 0.00 0.42 0.42 81 1006.0
20260509034136 72 66 1.0 1.0 0.00 0.42 0.42 81 1006.9
20260509033633 72 68 0.0 0.0 0.00 0.42 0.42 81 1006.7
20260509033130 72 68 0.0 1.0 0.00 0.42 0.42 81 1006.6
20260509032627 72 69 0.0 0.0 0.00 0.42 0.42 81 1006.1
20260509032124 72 69 0.0 0.0 0.00 0.42 0.42 81 1005.9
20260509031622 72 69 0.0 0.0 0.00 0.42 0.42 81 1005.9
20260509031119 72 72 0.0 0.0 0.00 0.42 0.42 81 1006.0
20260509030617 72 65 0.0 0.0 0.00 0.42 0.42 81 1006.0
20260509030114 72 68 0.0 0.0 0.00 0.42 0.42 81 1005.9
20260509025610 72 62 0.0 0.0 0.00 0.42 0.42 81 1006.0
20260509025106 72 62 0.0 0.0 0.00 0.42 0.42 81 1005.9
20260509024602 72 62 0.0 0.0 0.00 0.42 0.42 81 1005.9
20260509024058 72 57 1.0 2.0 0.00 0.42 0.42 81 1005.6
20260509023556 72 70 0.0 0.0 0.00 0.42 0.42 80 1005.3
20260509023053 72 137 0.0 1.0 0.00 0.42 0.42 81 1005.2
20260509022549 72 200 2.0 2.0 0.00 0.42 0.42 80 1005.0
20260509022047 72 161 1.0 1.0 0.00 0.42 0.42 80 1004.9
20260509021544 72 199 2.0 2.0 0.00 0.42 0.42 80 1004.9
20260509021041 72 197 2.0 3.0 0.00 0.42 0.42 80 1005.1
20260509020539 72 195 1.0 2.0 0.00 0.42 0.42 80 1005.3
20260509020035 72 184 1.0 2.0 0.00 0.42 0.42 80 1005.3
20260509015535 72 177 3.0 5.0 0.00 0.42 0.42 80 1005.2
20260509015031 72 211 1.0 1.0 0.00 0.42 0.42 79 1005.0
20260509014528 72 176 4.0 6.0 0.00 0.42 0.42 79 1005.0
20260509014024 72 177 2.0 2.0 0.00 0.42 0.42 79 1004.8
20260509013521 73 196 2.0 2.0 0.00 0.42 0.42 79 1005.0
20260509013017 73 160 1.0 1.0 0.00 0.42 0.42 79 1005.0
20260509012514 73 196 1.0 2.0 0.00 0.42 0.42 78 1004.8
20260509012010 73 105 0.0 0.0 0.00 0.42 0.42 78 1004.9
20260509011509 73 156 1.0 2.0 0.00 0.42 0.42 77 1004.7
20260509011006 73 199 1.0 1.0 0.00 0.42 0.42 77 1004.7
20260509010503 73 190 1.0 1.0 0.00 0.42 0.42 77 1004.6
20260509010000 73 192 1.0 1.0 0.00 0.42 0.42 76 1004.7
20260509005458 73 157 0.0 0.0 0.00 0.42 0.42 76 1004.6
20260509004957 73 181 2.0 3.0 0.00 0.42 0.42 75 1004.6
20260509004455 74 241 2.0 2.0 0.00 0.42 0.42 75 1004.4
20260509003952 74 183 2.0 3.0 0.00 0.42 0.42 75 1004.2
20260509003450 74 241 2.0 2.0 0.00 0.42 0.42 75 1004.2
20260509002947 74 187 2.0 2.0 0.00 0.42 0.42 74 1003.9
20260509002445 74 202 3.0 6.0 0.00 0.42 0.42 73 1004.0
20260509001941 74 144 1.0 1.0 0.00 0.42 0.42 74 1004.2
20260509001438 74 189 3.0 5.0 0.00 0.42 0.42 74 1004.3
20260509000935 74 122 1.0 2.0 0.00 0.42 0.42 73 1003.9
20260509000433 75 99 1.0 1.0 0.00 0.42 0.42 73 1004.2
20260508235928 75 86 1.0 1.0 0.00 0.42 0.42 72 1004.2
20260508235427 75 216 3.0 3.0 0.00 0.42 0.42 72 1004.3
20260508234923 75 205 3.0 5.0 0.00 0.42 0.42 71 1004.7
20260508234420 75 203 3.0 5.0 0.00 0.42 0.42 72 1004.6
20260508233918 75 111 1.0 1.0 0.00 0.42 0.42 72 1004.5
20260508233417 75 193 3.0 3.0 0.00 0.42 0.42 71 1004.7
20260508232913 75 202 3.0 3.0 0.00 0.42 0.42 71 1004.6
20260508232410 75 191 4.0 5.0 0.00 0.42 0.42 71 1004.5
20260508231908 75 119 2.0 2.0 0.00 0.42 0.42 71 1004.6
20260508231404 75 131 2.0 3.0 0.00 0.42 0.42 71 1004.7
20260508230901 76 235 3.0 5.0 0.00 0.42 0.42 70 1004.9
20260508230358 75 67 1.0 2.0 0.00 0.42 0.42 71 1005.0
20260508225850 75 232 2.0 3.0 0.00 0.42 0.42 72 1005.1
20260508225346 75 196 5.0 6.0 0.00 0.42 0.42 72 1005.1
20260508224844 76 204 4.0 6.0 0.00 0.42 0.42 70 1005.1
20260508224341 76 221 3.0 6.0 0.00 0.42 0.42 70 1004.9
20260508223838 76 252 3.0 5.0 0.00 0.42 0.42 70 1005.2
20260508223335 76 213 2.0 6.0 0.00 0.42 0.42 69 1005.0
20260508222833 76 143 1.0 1.0 0.00 0.42 0.42 69 1004.9
20260508222330 77 190 7.0 9.0 0.00 0.42 0.42 69 1004.9
20260508221827 77 226 2.0 3.0 0.00 0.42 0.42 69 1005.0
20260508221322 78 226 1.0 1.0 0.00 0.42 0.42 66 1004.9
20260508220819 78 206 4.0 5.0 0.00 0.42 0.42 66 1004.7
20260508220316 78 201 3.0 5.0 0.00 0.42 0.42 66 1004.6
20260508215812 78 219 2.0 2.0 0.00 0.42 0.42 67 1004.5
20260508215309 78 165 4.0 7.0 0.00 0.42 0.42 66 1004.6
20260508214806 78 189 3.0 5.0 0.00 0.42 0.42 66 1004.6
20260508214303 77 226 5.0 7.0 0.00 0.42 0.42 67 1004.5
20260508213800 78 242 5.0 7.0 0.00 0.42 0.42 66 1004.5
20260508213256 78 258 4.0 5.0 0.00 0.42 0.42 64 1004.6
20260508212753 78 210 3.0 3.0 0.00 0.42 0.42 66 1004.5
20260508212249 78 189 1.0 2.0 0.00 0.42 0.42 65 1004.7
20260508211745 77 210 5.0 7.0 0.00 0.42 0.42 66 1004.7
20260508211241 77 101 2.0 2.0 0.00 0.42 0.42 67 1004.8
20260508210739 77 207 3.0 5.0 0.00 0.42 0.42 65 1005.1
20260508210235 77 240 6.0 7.0 0.00 0.42 0.42 66 1005.4
20260508205731 76 163 2.0 2.0 0.00 0.42 0.42 68 1005.7
20260508205228 75 198 4.0 5.0 0.00 0.42 0.42 68 1005.7
20260508204724 75 167 3.0 5.0 0.00 0.42 0.42 68 1006.0
20260508204221 75 179 1.0 2.0 0.00 0.42 0.42 69 1006.4
20260508203717 75 194 4.0 6.0 0.00 0.42 0.42 67 1006.2
20260508203213 75 256 3.0 5.0 0.00 0.42 0.42 68 1006.5
20260508202709 76 187 4.0 5.0 0.00 0.42 0.42 67 1006.4
20260508202207 76 207 4.0 5.0 0.00 0.42 0.42 67 1006.6
20260508201703 76 233 3.0 3.0 0.00 0.42 0.42 67 1006.6
20260508201200 76 216 2.0 2.0 0.00 0.42 0.42 66 1006.6
20260508200657 77 162 3.0 6.0 0.00 0.42 0.42 67 1006.6
20260508200153 77 172 3.0 5.0 0.00 0.42 0.42 66 1006.6
20260508195650 77 236 6.0 7.0 0.00 0.42 0.42 65 1006.5
20260508195146 77 177 3.0 5.0 0.00 0.42 0.42 65 1006.6
20260508194643 77 198 4.0 5.0 0.00 0.42 0.42 64 1006.6
20260508194140 78 221 3.0 3.0 0.00 0.42 0.42 65 1006.5
20260508193637 78 288 1.0 1.0 0.00 0.42 0.42 65 1006.6
20260508193133 77 172 3.0 5.0 0.00 0.42 0.42 65 1006.6
20260508192630 78 240 1.0 2.0 0.00 0.42 0.42 63 1006.7
20260508192127 78 145 1.0 1.0 0.00 0.42 0.42 63 1006.7
20260508191624 79 181 3.0 3.0 0.00 0.42 0.42 60 1006.7
20260508191120 78 228 3.0 3.0 0.00 0.42 0.42 63 1006.7
20260508190618 79 212 4.0 5.0 0.00 0.42 0.42 60 1007.0
20260508190114 79 189 3.0 3.0 0.00 0.42 0.42 61 1006.7
20260508185611 80 276 1.0 2.0 0.00 0.42 0.42 58 1006.9
20260508185109 78 283 1.0 2.0 0.00 0.42 0.42 60 1006.7
20260508184606 78 157 2.0 2.0 0.00 0.42 0.42 61 1006.7
20260508184103 79 251 3.0 3.0 0.00 0.42 0.42 58 1006.9
20260508183559 78 97 1.0 2.0 0.00 0.42 0.42 61 1006.9
20260508183055 78 191 3.0 6.0 0.00 0.42 0.42 59 1007.1
20260508182552 78 86 1.0 2.0 0.00 0.42 0.42 59 1007.1
20260508182049 78 259 2.0 3.0 0.00 0.42 0.42 60 1007.4
20260508181549 77 71 0.0 1.0 0.00 0.42 0.42 62 1007.7
20260508181048 78 197 6.0 7.0 0.00 0.42 0.42 60 1007.6
20260508180544 77 48 0.0 1.0 0.00 0.42 0.42 62 1007.6
20260508180041 77 213 5.0 7.0 0.00 0.42 0.42 60 1007.8
20260508175537 77 77 0.0 1.0 0.00 0.42 0.42 62 1007.8
20260508175034 77 61 1.0 2.0 0.00 0.42 0.42 61 1007.9
20260508174532 76 135 3.0 3.0 0.00 0.42 0.42 61 1007.8
20260508174028 77 181 4.0 6.0 0.00 0.42 0.42 62 1008.0
20260508173526 77 60 0.0 1.0 0.00 0.42 0.42 61 1007.9
20260508173021 76 67 0.0 0.0 0.00 0.42 0.42 64 1008.2
20260508172519 75 35 1.0 1.0 0.00 0.42 0.42 63 1008.0
20260508172015 75 163 1.0 1.0 0.00 0.42 0.42 63 1008.3
20260508171512 75 146 1.0 1.0 0.00 0.42 0.42 63 1008.4
20260508171008 74 163 3.0 3.0 0.00 0.42 0.42 64 1008.6
20260508170506 74 259 1.0 2.0 0.00 0.42 0.42 64 1008.8
20260508170003 74 245 3.0 3.0 0.00 0.42 0.42 63 1008.8
20260508165500 73 124 3.0 5.0 0.00 0.42 0.42 65 1008.9
20260508164956 73 204 1.0 5.0 0.00 0.42 0.42 66 1008.9
20260508164453 73 83 1.0 1.0 0.00 0.42 0.42 67 1009.3
20260508163950 72 173 3.0 3.0 0.00 0.42 0.42 65 1009.1
20260508163448 71 222 5.0 7.0 0.00 0.42 0.42 66 1009.3
20260508162943 71 192 0.0 1.0 0.00 0.42 0.42 67 1009.3
20260508162441 71 197 2.0 2.0 0.00 0.42 0.42 68 1009.4
20260508161938 70 171 1.0 2.0 0.00 0.42 0.42 68 1009.8
20260508161435 70 103 1.0 1.0 0.00 0.42 0.42 70 1009.7
20260508160932 69 77 0.0 0.0 0.00 0.42 0.42 71 1009.8
20260508160431 69 209 3.0 5.0 0.00 0.42 0.42 70 1009.8
20260508155927 69 190 4.0 6.0 0.00 0.42 0.42 69 1010.0
20260508155424 69 211 1.0 2.0 0.00 0.42 0.42 70 1010.0
20260508154921 69 209 1.0 1.0 0.00 0.42 0.42 71 1009.9
20260508154419 68 178 1.0 1.0 0.00 0.42 0.42 70 1010.2
20260508153915 68 210 4.0 5.0 0.00 0.42 0.42 71 1010.2
20260508153412 68 233 2.0 3.0 0.00 0.42 0.42 72 1010.3
20260508152908 68 48 1.0 1.0 0.00 0.42 0.42 74 1010.2
20260508152405 68 195 1.0 2.0 0.00 0.42 0.42 72 1010.1
20260508151901 67 108 1.0 1.0 0.00 0.42 0.42 74 1009.9
20260508151358 67 161 1.0 1.0 0.00 0.42 0.42 76 1010.3
20260508150854 67 135 2.0 2.0 0.00 0.42 0.42 75 1010.3
20260508150351 67 202 1.0 3.0 0.00 0.42 0.42 78 1010.1
20260508145847 66 221 1.0 2.0 0.00 0.42 0.42 79 1010.3
20260508145343 65 213 2.0 3.0 0.00 0.42 0.42 81 1010.3
20260508144841 64 178 2.0 2.0 0.00 0.42 0.42 84 1010.3
20260508144339 63 265 1.0 2.0 0.00 0.42 0.42 89 1010.5
20260508143836 63 69 1.0 1.0 0.00 0.42 0.42 94 1010.2
20260508143332 62 130 0.0 1.0 0.00 0.42 0.42 96 1010.2
20260508142829 62 153 0.0 1.0 0.00 0.42 0.42 96 1010.3
20260508142326 62 109 2.0 3.0 0.00 0.42 0.42 97 1010.3
20260508141823 62 86 0.0 1.0 0.00 0.42 0.42 97 1010.5
20260508141320 62 52 0.0 0.0 0.00 0.42 0.42 97 1010.7
20260508140817 62 90 0.0 0.0 0.00 0.42 0.42 98 1010.5
20260508140314 62 175 1.0 1.0 0.00 0.42 0.42 98 1010.6
20260508135810 62 62 0.0 0.0 0.00 0.42 0.42 98 1010.6
20260508135306 62 75 0.0 1.0 0.00 0.42 0.42 98 1010.5
20260508134802 62 62 0.0 0.0 0.00 0.42 0.42 98 1010.4
20260508134259 61 64 0.0 0.0 0.00 0.42 0.42 98 1010.4
20260508133756 60 66 0.0 0.0 0.00 0.42 0.42 98 1010.4
20260508133254 60 77 0.0 0.0 0.00 0.42 0.42 98 1010.3
20260508132751 60 65 0.0 0.0 0.00 0.42 0.42 98 1010.3
20260508132248 60 64 0.0 0.0 0.00 0.42 0.42 98 1010.7
20260508131744 60 67 0.0 0.0 0.00 0.42 0.42 98 1010.5
20260508131240 59 66 0.0 0.0 0.00 0.42 0.42 98 1010.5
20260508130737 59 57 0.0 0.0 0.07 0.42 0.42 98 1010.6
20260508130234 59 58 0.0 0.0 0.07 0.42 0.42 98 1010.6
20260508125730 59 61 0.0 0.0 0.00 0.41 0.41 98 1010.8
20260508125226 59 61 0.0 0.0 0.05 0.41 0.41 98 1011.1
20260508124725 59 62 0.0 0.0 0.05 0.41 0.41 98 1010.9
20260508124222 59 68 0.0 0.0 0.00 0.40 0.40 98 1010.8
20260508123720 59 161 0.0 0.0 0.00 0.40 0.40 98 1010.7
20260508123218 59 182 1.0 1.0 0.00 0.40 0.40 98 1010.9
20260508122713 59 66 0.0 0.0 0.07 0.40 0.40 98 1011.1
20260508122210 59 67 0.0 0.0 0.07 0.40 0.40 98 1010.9
20260508121708 59 70 0.0 0.0 0.07 0.40 0.40 98 1010.9
20260508121207 59 101 0.0 0.0 0.00 0.39 0.39 98 1010.8
20260508120703 59 220 2.0 2.0 0.00 0.39 0.39 98 1010.8
20260508120201 59 122 1.0 1.0 0.00 0.39 0.39 98 1010.3
20260508115659 59 147 0.0 0.0 0.00 0.39 0.39 98 1010.6
20260508115155 60 60 0.0 1.0 0.00 0.39 0.39 99 1010.8
20260508114653 60 168 0.0 1.0 0.00 0.39 0.39 99 1010.7
20260508114149 60 61 0.0 0.0 0.00 0.39 0.39 99 1010.6
20260508113646 60 64 0.0 0.0 0.00 0.39 0.39 99 1010.6
20260508113144 60 65 0.0 0.0 0.00 0.39 0.39 99 1010.6
20260508112635 60 51 0.0 0.0 0.00 0.39 0.39 99 1010.7
20260508112132 60 50 0.0 0.0 0.24 0.39 0.39 98 1010.5
20260508111628 60 50 0.0 1.0 0.47 0.39 0.39 98 1010.3
20260508111126 60 52 0.0 0.0 0.35 0.36 0.36 98 1010.4
20260508110624 60 46 0.0 0.0 0.07 0.31 0.31 98 1010.4
20260508110120 60 45 0.0 0.0 0.00 0.30 0.30 98 1010.7
20260508105619 60 20 0.0 0.0 0.00 0.30 0.30 98 1011.3
20260508105117 60 274 1.0 2.0 0.00 0.30 0.30 98 1011.4
20260508104614 60 73 0.0 0.0 0.00 0.30 0.30 98 1011.1
20260508104111 60 80 1.0 1.0 0.00 0.30 0.30 98 1010.4
20260508103608 60 38 0.0 0.0 0.00 0.30 0.30 98 1010.9
20260508103105 60 17 0.0 0.0 0.05 0.30 0.30 98 1011.1
20260508102603 60 52 0.0 0.0 0.54 0.30 0.30 98 1010.5
20260508102100 60 53 0.0 0.0 0.73 0.29 0.29 98 1009.9
20260508101557 60 267 0.0 0.0 0.24 0.21 0.21 98 1010.3
20260508101054 60 206 0.0 1.0 0.00 0.17 0.17 98 1010.2
20260508100552 60 116 1.0 1.0 0.00 0.17 0.17 98 1009.5
20260508100049 60 114 0.0 0.0 0.00 0.17 0.17 98 1009.7
20260508095546 60 59 0.0 0.0 0.00 0.17 0.17 98 1009.5
20260508095043 60 50 0.0 0.0 0.00 0.17 0.17 98 1009.8
20260508094540 60 49 0.0 0.0 0.00 0.17 0.17 97 1009.8
20260508094037 60 48 0.0 0.0 0.00 0.17 0.17 97 1010.1
20260508093534 60 51 0.0 0.0 0.00 0.17 0.17 97 1009.7
20260508093032 60 50 0.0 0.0 0.00 0.17 0.17 97 1009.9
20260508092529 60 40 0.0 0.0 0.00 0.17 0.17 97 1010.1
20260508092028 60 58 0.0 0.0 0.00 0.17 0.17 97 1009.8
20260508091524 60 69 0.0 0.0 0.00 0.17 0.17 97 1009.7
20260508091021 60 52 0.0 0.0 0.00 0.17 0.17 96 1010.2
20260508090519 60 50 0.0 0.0 0.05 0.17 0.17 96 1010.2
20260508090015 60 53 0.0 0.0 0.05 0.17 0.17 96 1010.2
20260508085512 60 57 0.0 0.0 0.00 0.16 0.16 96 1010.2
20260508085009 60 53 0.0 1.0 0.00 0.16 0.16 95 1010.7
20260508084506 59 19 0.0 0.0 0.00 0.16 0.16 95 1010.7
20260508084004 60 27 1.0 1.0 0.07 0.16 0.16 94 1010.4
20260508083501 60 46 1.0 1.0 0.07 0.16 0.16 94 1010.4
20260508082956 60 69 1.0 1.0 0.19 0.15 0.15 94 1009.7
20260508082453 60 63 0.0 1.0 0.19 0.15 0.15 93 1010.0
20260508081951 60 62 1.0 1.0 0.00 0.12 0.12 92 1010.5
20260508081448 60 57 0.0 0.0 0.40 0.12 0.12 91 1011.1
20260508080943 61 59 0.0 0.0 0.66 0.12 0.12 89 1010.8
20260508080442 62 69 0.0 0.0 0.31 0.05 0.05 84 1010.9
20260508075938 62 96 0.0 0.0 0.12 0.02 0.02 83 1011.0
20260508075435 62 126 0.0 0.0 0.00 0.00 0.00 81 1011.6
20260508074933 62 159 0.0 0.0 0.00 0.00 0.00 81 1011.9
20260508074430 62 135 0.0 0.0 0.00 0.00 0.00 82 1011.7
20260508073927 62 138 0.0 0.0 0.00 0.00 0.00 82 1011.7
20260508073425 62 131 0.0 0.0 0.00 0.00 0.00 82 1011.5
20260508072921 61 131 0.0 0.0 0.00 0.00 0.00 82 1011.3
20260508072417 61 131 0.0 0.0 0.00 0.00 0.00 82 1011.0
20260508071915 61 131 0.0 0.0 0.00 0.00 0.00 82 1011.2
20260508071413 61 131 0.0 0.0 0.00 0.00 0.00 82 1011.0
20260508070911 61 131 0.0 0.0 0.00 0.00 0.00 82 1011.1
20260508070408 61 131 0.0 0.0 0.00 0.00 0.00 82 1011.3
20260508065906 61 131 0.0 0.0 0.00 0.00 0.00 82 1011.5
20260508065404 61 131 0.0 0.0 0.00 0.00 0.00 82 1011.5
20260508064902 61 131 0.0 0.0 0.00 0.00 0.00 82 1011.3
20260508064358 61 131 0.0 0.0 0.00 0.00 0.00 82 1011.5
20260508063857 61 131 0.0 0.0 0.00 0.00 0.00 81 1011.8
20260508063354 61 131 0.0 0.0 0.00 0.00 0.00 81 1012.0
20260508062851 61 131 0.0 0.0 0.00 0.00 0.00 81 1011.8
20260508062348 61 131 0.0 0.0 0.00 0.00 0.00 81 1011.9
20260508061846 61 131 0.0 0.0 0.00 0.00 0.00 81 1011.8
20260508061343 61 131 0.0 0.0 0.00 0.00 0.00 81 1012.0
20260508060839 61 131 0.0 0.0 0.00 0.00 0.00 81 1011.8
20260508060337 61 131 0.0 0.0 0.00 0.00 0.00 81 1011.5
20260508055831 61 131 0.0 0.0 0.00 0.00 0.00 81 1011.7
20260508055330 61 131 0.0 0.0 0.00 0.00 0.00 81 1011.8
20260508054826 61 131 0.0 0.0 0.00 0.00 0.00 81 1011.6
20260508054324 61 131 0.0 0.0 0.00 0.00 0.00 81 1011.9
20260508053820 61 131 0.0 0.0 0.00 0.00 0.00 81 1011.9
20260508053318 61 131 0.0 0.0 0.00 0.00 0.00 81 1011.8
20260508052815 61 131 0.0 0.0 0.00 0.00 0.00 81 1012.0
20260508052312 61 131 0.0 0.0 0.00 0.00 0.00 81 1012.1
20260508051808 61 131 0.0 0.0 0.00 0.00 0.00 80 1011.9
20260508051303 61 131 0.0 0.0 0.00 0.00 0.00 79 1012.2
20260508050800 61 131 0.0 0.0 0.00 0.00 0.00 79 1011.9
20260508050258 61 131 0.0 0.0 0.00 0.00 0.00 79 1012.1
20260508045753 61 131 0.0 0.0 0.00 0.00 0.00 78 1011.8
20260508045251 62 131 0.0 0.0 0.00 0.00 0.00 78 1011.9
20260508044748 62 131 0.0 0.0 0.00 0.00 0.00 77 1012.0
20260508044245 62 131 0.0 0.0 0.00 0.00 0.00 77 1012.1
20260508043741 62 131 0.0 0.0 0.00 0.00 0.00 77 1011.9